EUTELSAT 12 WEST B (26927 NORAD) Tracking and Keplerian Element Data

This shows tracking and keplerian element data for the satellite.

Feedback or suggestion? Click here.




ElementValue
Catalog26927
NameEUTELSAT 12 WEST B
Epoch Orbit6976
Epoch Day289.51851406
Epoch Year2020
RAAN92.3746
Inclination1.3232
Eccentricity0.0004875
Argument of Perigee171.0601
Mean Anonmoly246.5491
Mean Motion0.98526288
Decay Rate-1.17E-06
L11 26927U 01042A 20289.51851406 -.00000117 00000-0 00000+0 0 9993
L22 26927 1.3232 92.3746 0004875 171.0601 246.5491 0.98526288 69767



Live tracking and technical data element details for EUTELSAT 12 WEST B (NORAD 26927). EUTELSAT 12 WEST B can be tracked NOW for your location showing map with azimuth and elevation plus other details from your city location.







IsCatalogInMostPopularTable: catalog: 26927, numindb: 409
Update: records affected: 1



GetName: 26927 EUTELSAT 12 WEST B

Hit Count: updated at: Thu, 22 May 2025 03:37:17 GMT